Regional Weather Roundup
Issued by NWS

Home | Current Version | Previous Version | Text Only | Print | Product List | Glossary On
Versions: 1 2 3 4 5 6 7 8 9 10 11 12 13 14 15 16 17 18 19 20 21 22 23 24 25 26 27 28 29 30 31 32 33 34 35 36 37 38 39 40 41 42 43 44 45 46 47 48 49 50
000
ASUS43 KOAX 250410
RWRNE

WEATHER ROUNDUP FOR NEBRASKA
NATIONAL WEATHER SERVICE OMAHA NE
1000 PM CST SAT JAN 24 2015

NOTES: SATELLITE DATA IS BEING USED TO AUGMENT CLOUD COVER ABOVE
       12000 FEET.
       "FAIR" INDICATES FEW OR NO CLOUDS BELOW 12,000 FEET WITH NO
       SIGNIFICANT WEATHER AND/OR OBSTRUCTIONS TO VISIBILITY.

  * THESE STATIONS DO NOT REPORT WEATHER SUCH AS RAIN...SNOW OR FOG.

NEZ001>004-019>022-054>056-250500-
NEBRASKA PANHANDLE

CITY           SKY/WX    TMP DP  RH WIND       PRES   REMARKS
SCOTTSBLUFF    MOCLDY    37  32  82 NW17      30.05R WCI  27
ALLIANCE       CLEAR     37  28  70 NW23G32   29.99R WCI  26
CHADRON        CLEAR     37  30  75 NW20G28   30.01R WCI  27
KIMBALL        CLOUDY    36  32  85 NW25G37   30.07S WCI  23
SIDNEY         CLOUDY    38  30  73 NW23G33   30.03F WCI  27
$$

NEZ057>060-069>072-079>082-250500-
SOUTHWEST NEBRASKA

CITY           SKY/WX    TMP DP  RH WIND       PRES   REMARKS
NORTH PLATTE   PTCLDY    40  33  76 NW12      29.89R WCI  33
IMPERIAL       CLOUDY    43  31  62 NW24G39   29.95R
LEXINGTON      PTCLDY    44  36  71 NW28G35   29.83S
MCCOOK         CLOUDY    48  35  60 NW28G38   29.89R
OGALLALA       MOCLDY    41  34  75 NW22G29   29.95R
$$

NEZ005>010-023>029-035>040-094-250500-
NORTH CENTRAL NEBRASKA

CITY           SKY/WX    TMP DP  RH WIND       PRES   REMARKS
VALENTINE      CLOUDY    43  32  65 NW31G44   29.81R
AINSWORTH      DRIZZLE   41  34  75 NW39G46   29.77R
BROKEN BOW     PTCLDY    45  33  63 NW31G40   29.78R
O`NEILL        CLOUDY    43  39  86 NW28G38   29.70R
ORD            LGT RAIN  44  36  73 NW23      29.73R
THEDFORD       PTCLDY    43  32  65 NW28G40   29.83S
$$

NEZ041-046>049-061>064-073>077-083>087-250500-
SOUTH CENTRAL NEBRASKA

CITY           SKY/WX    TMP DP  RH WIND       PRES   REMARKS
GRAND ISLAND   PTCLDY    47  36  65 NW23G30   29.74R
AURORA         MOCLDY    45  37  72 NW17      29.72R
HASTINGS       MOCLDY    47  33  58 NW23G29   29.74R
HEBRON         CLOUDY    44  32  63 W10       29.72S
HOLDREGE       PTCLDY    46  35  67 NW24G32   29.80R
KEARNEY *      PTCLDY    46  34  61 NW23G30   29.77S
YORK           CLOUDY    45  39  81 NW17      29.70R
$$

NEZ011>018-030>034-042>045-250500-
NORTHEAST NEBRASKA

CITY           SKY/WX    TMP DP  RH WIND       PRES   REMARKS
NORFOLK        CLOUDY    45  36  70 NW22G38   29.62S
ALBION         MOCLDY    45  37  73 NW24G32   29.67S
BLAIR          CLOUDY    46  40  79 W12       29.59S
COLUMBUS *     MOCLDY    45  36  70 NW20G30   29.66S
FREMONT        CLOUDY    47  41  81 W20       29.61S
TEKAMAH        CLOUDY    48  40  73 W22G30    29.58S
WAYNE          LGT RAIN  43  39  87 NW22G32   29.62R
$$

NEZ050>053-065>068-078-088>093-250500-
SOUTHEAST NEBRASKA

CITY           SKY/WX    TMP DP  RH WIND       PRES   REMARKS
LINCOLN        CLOUDY    50  41  71 W18G26    29.66S
OMAHA EPPLEY   CLOUDY    46  39  76 W8        29.60F
BEATRICE       RAIN      44  41  90 W7        29.68F
FALLS CITY     LGT RAIN  46  39  76 W10       29.66F
NEBRASKA CITY  LGT RAIN  43  38  82 W12       29.64S
PLATTSMOUTH    CLOUDY    44  38  82 W9        29.62S
$$

NEZ044-045-051>053-067-250500-
OMAHA AREA

CITY           SKY/WX    TMP DP  RH WIND       PRES   REMARKS
OMAHA EPPLEY   CLOUDY    46  39  76 W8        29.60F
BLAIR          CLOUDY    46  40  79 W12       29.59S
FREMONT        CLOUDY    47  41  81 W20       29.61S
MILLARD        RAIN      46  40  81 W7        29.61S
OFFUTT AFB     CLOUDY    45  39  78 W9        29.61R
PLATTSMOUTH    CLOUDY    44  38  82 W9        29.62S
WAHOO          CLOUDY    48  39  72 NW25G32   29.62S
$$



USA.gov is the U.S. government's official web portal to all federal, state and local government web resources and services.